Time,TemperatureF,DewpointF,PressureIn,WindDirection,WindDirectionDegrees,WindSpeedMPH,WindSpeedGustMPH,Humidity,HourlyPrecipIn,Conditions,Clouds,dailyrainin,SolarRadiationWatts/m^2,SoftwareType,DateUTC
2013-05-28 00:01:00,47.0,41.0,-100.00,SSW,201,4.0,13.0,78,0.01,,,0.94,7.000000,,2013-05-28 07:01:00,
2013-05-28 00:11:00,47.0,41.0,-100.00,SSW,201,4.0,13.0,78,0.01,,,0.94,7.000000,,2013-05-28 07:11:00,
2013-05-28 00:32:00,47.0,31.0,-100.00,SSW,197,2.0,9.0,54,0.00,,,0.94,7.000000,,2013-05-28 07:32:00,
2013-05-28 01:32:00,47.0,29.0,-100.00,SSW,192,2.0,8.0,50,0.00,,,0.94,7.000000,,2013-05-28 08:32:00,
2013-05-28 02:33:00,47.0,29.0,-100.00,SSW,195,7.0,11.0,49,0.00,,,0.94,7.000000,,2013-05-28 09:33:00,
2013-05-28 03:32:00,45.0,27.0,-100.00,SSW,192,6.0,12.0,50,0.00,,,0.91,7.000000,,2013-05-28 10:32:00,
2013-05-28 04:32:00,45.0,27.0,-100.00,South,189,6.0,11.0,50,0.00,,,0.87,6.000000,,2013-05-28 11:32:00,
2013-05-28 05:32:00,45.0,27.0,-100.00,SSW,195,5.0,12.0,49,0.00,,,0.78,6.000000,,2013-05-28 12:32:00,
2013-05-28 06:32:00,45.0,27.0,-100.00,SSW,194,5.0,10.0,50,0.00,,,0.64,10.000000,,2013-05-28 13:32:00,
2013-05-28 07:32:00,47.0,29.0,-100.00,SSW,196,6.0,12.0,50,0.01,,,0.50,32.000000,,2013-05-28 14:32:00,
2013-05-28 08:33:00,46.0,28.0,-100.00,SSW,194,6.0,12.0,50,0.02,,,0.39,80.000000,,2013-05-28 15:33:00,
2013-05-28 09:33:00,49.0,30.0,-100.00,SSW,196,4.0,12.0,47,0.04,,,-99.99,160.000000,,2013-05-28 16:33:00,
2013-05-28 10:32:00,50.0,50.0,-100.00,SSW,192,6.0,10.0,99,0.00,,,0.23,396.000000,,2013-05-28 17:32:00,
2013-05-28 10:42:00,50.0,50.0,-100.00,SSW,192,6.0,10.0,99,0.00,,,0.23,396.000000,,2013-05-28 17:42:00,
2013-05-28 10:52:00,50.0,50.0,-100.00,SSW,192,6.0,10.0,99,0.00,,,0.23,396.000000,,2013-05-28 17:52:00,
2013-05-28 11:01:00,50.0,50.0,-100.00,SSW,192,6.0,10.0,99,0.00,,,0.23,396.000000,,2013-05-28 18:01:00,
2013-05-28 11:11:00,50.0,50.0,-100.00,SSW,192,6.0,10.0,99,0.00,,,0.23,396.000000,,2013-05-28 18:11:00,
2013-05-28 11:32:00,55.0,53.0,-100.00,SSW,204,4.0,13.0,93,0.00,,,-99.99,468.000000,,2013-05-28 18:32:00,
2013-05-28 11:42:00,55.0,53.0,-100.00,SSW,204,4.0,13.0,93,0.00,,,-99.99,468.000000,,2013-05-28 18:42:00,
2013-05-28 11:52:00,55.0,53.0,-100.00,SSW,204,4.0,13.0,93,0.00,,,-99.99,468.000000,,2013-05-28 18:52:00,
2013-05-28 12:01:00,55.0,53.0,-100.00,SSW,204,4.0,13.0,93,0.00,,,-99.99,468.000000,,2013-05-28 19:01:00,
2013-05-28 12:11:00,55.0,53.0,-100.00,SSW,204,4.0,13.0,93,0.00,,,-99.99,468.000000,,2013-05-28 19:11:00,
2013-05-28 12:32:00,57.0,53.0,-100.00,SSW,199,4.0,13.0,87,0.00,,,0.20,655.000000,,2013-05-28 19:32:00,
2013-05-28 12:42:00,57.0,53.0,-100.00,SSW,199,4.0,13.0,87,0.00,,,0.20,655.000000,,2013-05-28 19:42:00,
2013-05-28 12:52:00,57.0,53.0,-100.00,SSW,199,4.0,13.0,87,0.00,,,0.20,655.000000,,2013-05-28 19:52:00,
2013-05-28 13:01:00,57.0,53.0,-100.00,SSW,199,4.0,13.0,87,0.00,,,0.20,655.000000,,2013-05-28 20:01:00,
2013-05-28 13:11:00,57.0,53.0,-100.00,SSW,199,4.0,13.0,87,0.00,,,0.20,655.000000,,2013-05-28 20:11:00,
2013-05-28 13:32:00,62.0,56.0,-100.00,SSW,199,2.0,12.0,80,0.00,,,0.19,801.000000,,2013-05-28 20:32:00,
2013-05-28 13:42:00,62.0,56.0,-100.00,SSW,199,2.0,12.0,80,0.00,,,0.19,801.000000,,2013-05-28 20:42:00,
2013-05-28 13:52:00,62.0,56.0,-100.00,SSW,199,2.0,12.0,80,0.00,,,0.19,801.000000,,2013-05-28 20:52:00,
2013-05-28 14:01:00,62.0,56.0,-100.00,SSW,199,2.0,12.0,80,0.00,,,0.19,801.000000,,2013-05-28 21:01:00,
2013-05-28 14:11:00,62.0,56.0,-100.00,SSW,199,2.0,12.0,80,0.00,,,0.19,801.000000,,2013-05-28 21:11:00,
2013-05-28 15:33:00,67.0,53.0,-100.00,ESE,113,2.0,11.0,61,-99.99,,,0.18,1123.000000,,2013-05-28 22:33:00,
2013-05-28 16:11:00,67.0,53.0,-100.00,ESE,113,2.0,11.0,61,-99.99,,,0.18,1123.000000,,2013-05-28 23:11:00,
2013-05-28 16:32:00,61.0,50.0,-100.00,SW,220,3.0,14.0,68,0.00,,,0.18,853.000000,,2013-05-28 23:32:00,
2013-05-28 16:42:00,61.0,50.0,-100.00,SW,220,3.0,14.0,68,0.00,,,0.18,853.000000,,2013-05-28 23:42:00,
2013-05-28 16:52:00,61.0,50.0,-100.00,SW,220,3.0,14.0,68,0.00,,,0.18,853.000000,,2013-05-28 23:52:00,
2013-05-28 17:02:00,61.0,50.0,-100.00,SW,220,3.0,14.0,68,0.00,,,0.18,853.000000,,2013-05-29 00:02:00,
2013-05-28 17:11:00,61.0,50.0,-100.00,SW,220,3.0,14.0,68,0.00,,,0.18,853.000000,,2013-05-29 00:11:00,
2013-05-28 18:32:00,57.0,49.0,-100.00,South,171,2.0,8.0,74,-99.99,,,0.08,386.000000,,2013-05-29 01:32:00,
2013-05-28 18:42:00,57.0,49.0,-100.00,South,171,2.0,8.0,74,-99.99,,,0.08,386.000000,,2013-05-29 01:42:00,
2013-05-28 18:52:00,57.0,49.0,-100.00,South,171,2.0,8.0,74,-99.99,,,0.08,386.000000,,2013-05-29 01:52:00,
2013-05-28 19:02:00,57.0,49.0,-100.00,South,171,2.0,8.0,74,-99.99,,,0.08,386.000000,,2013-05-29 02:02:00,
2013-05-28 19:12:00,57.0,49.0,-100.00,South,171,2.0,8.0,74,-99.99,,,0.08,386.000000,,2013-05-29 02:12:00,
2013-05-28 19:32:00,51.0,46.0,-100.00,West,260,2.0,8.0,82,0.00,,,0.08,167.000000,,2013-05-29 02:32:00,
2013-05-28 19:42:00,51.0,46.0,-100.00,West,260,2.0,8.0,82,0.00,,,0.08,167.000000,,2013-05-29 02:42:00,
2013-05-28 19:52:00,51.0,46.0,-100.00,West,260,2.0,8.0,82,0.00,,,0.08,167.000000,,2013-05-29 02:52:00,
2013-05-28 20:01:00,51.0,46.0,-100.00,West,260,2.0,8.0,82,0.00,,,0.08,167.000000,,2013-05-29 03:01:00,
2013-05-28 20:11:00,51.0,46.0,-100.00,West,260,2.0,8.0,82,0.00,,,0.08,167.000000,,2013-05-29 03:11:00,
2013-05-28 20:33:00,51.0,45.0,-100.00,South,188,0.0,6.0,81,0.00,,,0.08,77.000000,,2013-05-29 03:33:00,
2013-05-28 20:43:00,51.0,45.0,-100.00,South,188,0.0,6.0,81,0.00,,,0.08,77.000000,,2013-05-29 03:43:00,
2013-05-28 20:53:00,51.0,45.0,-100.00,South,188,0.0,6.0,81,0.00,,,0.08,77.000000,,2013-05-29 03:53:00,
2013-05-28 21:02:00,51.0,45.0,-100.00,South,188,0.0,6.0,81,0.00,,,0.08,77.000000,,2013-05-29 04:02:00,
2013-05-28 21:12:00,51.0,45.0,-100.00,South,188,0.0,6.0,81,0.00,,,0.08,77.000000,,2013-05-29 04:12:00,
2013-05-28 21:33:00,50.0,44.0,-100.00,ENE,67,0.0,0.0,81,0.00,,,0.08,15.000000,,2013-05-29 04:33:00,
2013-05-28 21:42:00,50.0,44.0,-100.00,ENE,67,0.0,0.0,81,0.00,,,0.08,15.000000,,2013-05-29 04:42:00,
2013-05-28 21:52:00,50.0,44.0,-100.00,ENE,67,0.0,0.0,81,0.00,,,0.08,15.000000,,2013-05-29 04:52:00,
2013-05-28 22:02:00,50.0,44.0,-100.00,ENE,67,0.0,0.0,81,0.00,,,0.08,15.000000,,2013-05-29 05:02:00,
2013-05-28 22:12:00,50.0,44.0,-100.00,ENE,67,0.0,0.0,81,0.00,,,0.08,15.000000,,2013-05-29 05:12:00,
2013-05-28 22:33:00,46.0,44.0,-100.00,NE,37,0.0,4.0,94,0.01,,,0.09,7.000000,,2013-05-29 05:33:00,
2013-05-28 22:42:00,46.0,44.0,-100.00,NE,37,0.0,4.0,94,0.01,,,0.09,7.000000,,2013-05-29 05:42:00,
2013-05-28 22:52:00,46.0,44.0,-100.00,NE,37,0.0,4.0,94,0.01,,,0.09,7.000000,,2013-05-29 05:52:00,
2013-05-28 23:01:00,46.0,44.0,-100.00,NE,37,0.0,4.0,94,0.01,,,0.09,7.000000,,2013-05-29 06:01:00,
2013-05-28 23:11:00,46.0,44.0,-100.00,NE,37,0.0,4.0,94,0.01,,,0.09,7.000000,,2013-05-29 06:11:00,
2013-05-28 23:32:00,47.0,46.0,-100.00,NE,39,0.0,3.0,97,0.05,,,0.13,7.000000,,2013-05-29 06:32:00,
2013-05-28 23:42:00,47.0,46.0,-100.00,NE,39,0.0,3.0,97,0.05,,,0.13,7.000000,,2013-05-29 06:42:00,
2013-05-28 23:52:00,47.0,46.0,-100.00,NE,39,0.0,3.0,97,0.05,,,0.13,7.000000,,2013-05-29 06:52:00,